Regional Weather Roundup
Issued by NWS

Home | Current Version | Previous Version | Graphics & Text | Print | Product List | Glossary On
Versions: 1 2 3 4 5 6 7 8 9 10 11 12 13 14 15 16 17 18 19 20 21 22 23 24 25 26 27 28 29 30 31 32 33 34 35 36 37 38 39 40 41 42 43 44 45 46 47 48 49 50
000
ASUS45 KSLC 060810
RWRUT

UTAH REGIONAL WEATHER ROUNDUP
NATIONAL WEATHER SERVICE SALT LAKE CITY UT
200 AM MDT WED MAY 06 2015

UTZ001>011-023>025-060900-

NORTHERN UTAH

CITY           SKY/WX    TMP DP  RH WIND       PRES   REMARKS
HILL AFB       CLOUDY    54  49  85 S5        29.84R
LOGAN          CLEAR     50  47  89 CALM      29.81S
OGDEN          CLOUDY    55  48  77 S6        29.83R
PROVO AIRPORT  CLOUDY    52  46  82 S5        29.86F
SALT LAKE CITY CLOUDY    56  49  77 SE6       29.82S
VERNAL         LGT RAIN  51  48  89 CALM      29.81F
WENDOVER       MOCLDY    55  46  71 NW6       29.82F
HEBER CITY     CLOUDY    46  45  93 CALM      29.87S
WEST JORDAN    CLOUDY    52  52 100 S9        29.84F

$$

UTZ012>022-026-027-060900-

SOUTHERN/CENTRAL UTAH

CITY           SKY/WX    TMP DP  RH WIND       PRES   REMARKS
BLANDING       MOCLDY    48  47  96 CALM      29.95F
BRYCE CANYON   CLOUDY    40  37  89 NW6       29.98F
CEDAR CITY     LGT RAIN  47  42  83 S16       29.93F
DELTA          CLOUDY    50  49  97 S14       29.87F
HANKSVILLE     CLOUDY    54  50  87 CALM      29.83S
MILFORD        LGT RAIN  50  47  89 S5        29.90S
MOAB/CYNLANDS  CLOUDY    54  53  97 CALM      29.80S
PRICE          CLOUDY    50  45  83 NW5       29.84F
ST GEORGE      CLOUDY    57  50  77 SE8       29.89F
KANAB          CLOUDY    50  46  87 S7        29.98S

$$

REGIONAL REPORTS     COLORADO/ARIZONA

CITY           SKY/WX    TMP DP  RH WIND       PRES   REMARKS
CRAIG, CO      CLOUDY    50  46  86 W9        29.81S
GRAND JUNCTION LGT RAIN  51  51 100 N6        29.81F
RIFLE          LGT RAIN  49  47  93 NE5       29.83F
MONTROSE       LGT RAIN  50  47  89 SE8       29.86F
CORTEZ         LGT RAIN  49  47  93 CALM      29.90F FOG
PAGE, AZ       NOT AVBL
GRAND CANYON   MOCLDY    42  39  89 SW8       30.01F
KINGMAN        MOCLDY    60  29  30 S10       29.88F
FLAGSTAFF      MOCLDY    39  38  96 CALM      30.05S

$$

REGIONAL REPORTS    NEVADA/IDAHO/WYOMING

CITY           SKY/WX    TMP DP  RH WIND       PRES   REMARKS
LAS VEGAS, NV  CLOUDY    73  33  23 S8        29.73R
ELY            MOCLDY    47  37  68 S12       29.90F
ELKO           CLEAR     51  29  42 NE8       29.83S
POCATELLO, ID  CLEAR     53  22  29 W16       29.82R
BURLEY         MOCLDY    50  23  34 W15       29.82R
EVANSTON, WY   CLOUDY    44  43  96 SW7       29.89F FOG
ROCK SPRINGS   CLOUDY    47  41  80 SW12      29.82F
KEMMERER       CLOUDY    43  41  93 W3        29.88F

$$



USA.gov is the U.S. government's official web portal to all federal, state and local government web resources and services.